Theta_e
347 347 348 348 347 346 349 350 350 350 350 350 349 348 347 345 343 343 343 344 344 340 336 337 337 338 341 342 343 342 340 342 342 342 343 343 344 344 344 343 344 345 346 345 345 343 342 343 344 346 347 346 345 342 343 344 345 346 345 345 346 346
346 347 348 348 347 346 348 349 346 347 347 347 347 346 344 340 342 337 342 341 337 339 332 330 333 341 339 340 339 341 340 342 342 342 343 343 344 344 343 344 345 345 345 345 343 335 334 340 344 346 347 344 340 341 343 343 343 344 344 345 345 346
345 347 347 346 347 346 345 344 345 346 346 347 346 344 339 340 333 334 336 335 338 335 330 332 335 340 341 343 340 341 341 343 342 343 343 343 343 343 344 344 343 342 343 342 334 332 333 332 333 347 344 339 339 340 342 343 343 343 343 344 344 346
344 346 345 345 346 346 342 342 343 344 343 340 338 338 335 333 332 331 332 332 332 333 332 328 342 342 342 340 338 341 342 342 342 343 341 339 340 341 342 340 339 340 336 336 333 334 335 332 332 336 338 338 339 340 340 341 342 342 343 344 344 345
344 345 345 345 345 345 343 341 342 342 341 339 335 332 332 331 330 330 331 332 329 333 330 328 331 333 333 333 332 332 331 332 331 330 340 331 328 329 330 330 331 334 331 334 334 334 334 334 336 337 337 338 338 339 339 340 340 341 341 342 344 344
344 344 344 344 344 345 344 342 341 341 340 337 336 334 331 331 330 331 330 332 334 331 328 329 329 330 331 330 331 330 327 328 327 328 335 332 328 327 329 330 332 334 334 334 334 334 338 336 337 337 337 337 337 337 337 338 339 339 340 341 342 342
343 343 344 345 344 344 343 342 342 341 339 337 336 333 331 330 330 331 332 335 333 330 328 327 328 328 329 329 330 329 329 328 328 329 332 332 332 332 332 333 333 333 331 334 334 335 335 336 337 337 337 336 336 336 335 336 336 336 337 338 339 340
343 343 343 344 344 343 342 341 341 342 340 339 337 335 333 331 332 332 334 335 336 331 330 328 329 329 329 329 330 330 331 332 333 331 332 335 335 332 335 336 336 335 334 333 335 335 335 336 337 337 335 335 335 334 333 333 332 332 333 334 336 337
342 343 343 343 342 342 342 341 341 340 338 340 335 335 333 331 331 333 334 336 338 334 335 330 329 330 330 330 330 331 332 332 332 332 334 336 335 332 333 334 335 335 332 332 333 334 335 335 336 336 335 334 333 332 331 331 330 329 329 330 332 333
341 342 343 342 342 341 341 340 340 340 338 338 334 333 330 329 330 332 332 335 337 336 335 334 332 331 332 331 331 333 333 332 332 334 335 335 333 332 332 331 332 333 332 331 333 337 335 335 336 335 334 333 332 331 330 328 326 325 325 326 328 329
341 343 343 342 341 341 341 340 339 339 337 336 334 332 330 329 330 332 333 334 336 338 336 335 334 332 333 332 332 333 333 333 334 334 333 333 334 334 332 332 332 333 331 330 332 335 333 334 335 334 334 332 330 330 328 326 324 322 321 322 323 326
342 342 342 342 342 340 340 340 339 338 336 335 333 331 329 329 333 331 334 334 336 337 339 335 334 333 334 332 332 333 332 332 332 334 334 334 336 334 334 334 334 333 333 331 327 327 329 333 334 334 332 330 329 327 325 323 321 320 319 320 320 321
342 342 342 342 341 340 340 340 339 337 336 336 333 330 328 328 329 332 334 335 336 337 338 336 334 335 337 333 332 331 330 331 332 334 334 335 335 334 333 333 333 332 329 325 324 324 326 331 333 332 331 329 327 324 323 321 320 320 319 319 319 319
341 341 342 342 341 340 340 339 339 336 337 335 332 330 330 328 330 332 334 336 336 337 338 336 335 334 335 333 331 331 331 331 332 334 334 334 332 331 331 331 332 330 329 323 321 322 326 329 332 331 330 328 326 324 322 320 320 320 319 318 318 318
341 341 341 341 341 340 340 339 338 336 335 335 333 331 330 329 330 333 335 336 336 337 337 335 335 334 333 332 331 330 331 332 332 333 333 332 331 330 330 330 330 325 322 321 321 324 324 328 330 329 328 327 325 323 322 320 320 319 318 317 317 316
341 341 341 341 341 340 339 338 338 339 336 335 334 331 330 330 331 334 336 335 336 337 337 335 335 334 333 332 331 330 331 332 333 332 332 331 330 329 329 329 329 323 319 319 319 318 322 324 326 326 326 325 324 323 320 320 319 318 317 317 316 315
339 340 341 341 341 340 338 337 336 338 336 335 334 332 331 331 333 334 335 335 336 338 336 335 335 334 333 332 331 331 332 332 332 331 331 330 329 329 329 329 328 326 320 317 317 317 318 320 320 321 321 321 322 321 319 319 318 317 316 314 314 314
339 341 341 341 340 339 338 337 336 336 338 335 334 334 332 333 333 335 336 335 336 338 337 335 335 334 333 333 332 332 332 332 332 330 330 330 329 328 328 327 324 321 319 317 316 317 315 316 317 316 316 315 315 315 315 316 318 319 314 313 313 314
339 340 340 340 340 339 338 336 336 335 335 334 333 333 333 333 334 335 336 336 337 338 338 335 334 334 332 334 332 332 332 332 332 330 329 328 328 329 327 325 323 319 318 317 316 316 314 314 313 313 312 312 313 313 314 316 315 313 313 313 314 314
338 339 340 339 339 338 336 335 333 332 332 333 332 332 332 334 335 335 336 337 337 337 337 336 335 334 333 333 332 332 331 332 331 329 328 328 327 328 326 323 320 317 316 316 315 314 314 313 311 311 312 310 311 311 311 312 311 311 313 313 314 311
338 339 339 338 338 337 335 334 333 332 332 332 331 331 332 333 334 336 337 337 337 338 337 337 337 335 332 335 332 332 331 332 331 329 328 329 328 327 326 324 321 319 315 313 313 314 313 312 309 307 308 308 308 312 314 310 309 309 310 310 310 308
337 338 338 338 338 337 336 335 334 333 332 331 331 331 331 332 334 335 336 337 337 337 337 337 337 335 333 333 331 331 331 331 330 328 328 328 327 329 325 322 319 317 318 314 312 313 312 311 310 305 304 305 308 309 313 308 308 308 308 308 308 308
336 337 338 338 338 337 336 336 335 331 333 329 331 333 333 334 335 334 335 336 336 336 336 336 336 335 333 332 331 331 330 330 329 328 326 325 327 325 323 321 319 317 315 318 316 314 313 314 311 309 309 306 303 303 307 308 308 307 308 308 307 306
336 337 337 338 338 337 337 334 333 333 333 332 330 333 332 333 334 334 334 336 335 334 334 335 336 335 333 332 331 331 329 328 327 327 325 325 324 323 322 321 320 319 317 314 313 313 316 315 311 310 308 308 305 304 302 303 303 305 306 306 307 307
335 336 337 338 338 337 336 333 332 331 332 331 332 332 331 331 333 334 334 334 334 333 333 333 334 334 333 330 329 329 328 327 326 326 325 325 324 323 323 322 321 319 317 316 313 313 315 316 314 318 312 306 306 305 305 305 301 303 306 305 304 306
335 336 336 337 338 337 335 333 330 329 328 329 328 328 329 329 330 332 333 334 334 333 331 332 332 332 332 330 328 326 327 326 325 324 325 324 324 322 322 321 321 320 318 319 316 312 312 318 316 318 314 313 313 310 306 306 304 301 306 308 307 309
335 335 336 337 337 336 334 334 332 332 331 330 329 329 329 331 332 334 335 333 332 331 330 330 330 330 329 329 327 325 325 325 324 323 325 323 322 322 321 322 322 320 319 319 317 313 313 313 316 315 314 314 315 312 310 305 304 299 299 304 304 303
334 335 336 336 336 336 335 333 332 332 332 331 330 329 329 330 332 334 333 332 330 329 329 329 328 327 327 327 325 323 323 323 323 322 324 322 322 321 320 320 322 321 320 320 318 317 314 314 316 314 313 312 310 309 307 306 306 308 302 300 300 302
334 335 335 336 336 335 336 334 333 332 331 332 331 329 330 330 331 332 331 330 329 328 328 327 327 326 326 326 327 323 322 322 322 322 324 320 320 319 319 319 318 317 319 319 318 318 316 314 316 312 309 306 306 306 305 306 305 305 304 300 299 299
333 334 335 335 335 335 335 334 332 332 331 329 329 329 329 329 329 330 329 328 328 326 326 325 324 324 324 324 325 323 321 321 321 321 322 318 317 316 316 316 317 317 318 318 317 318 317 315 316 314 314 309 307 306 306 306 305 302 302 304 304 299
332 334 335 335 335 334 334 334 333 332 331 329 328 328 328 327 328 328 328 326 326 325 325 325 323 322 323 323 322 323 321 320 320 323 320 315 315 315 314 314 313 314 315 316 314 315 315 313 314 312 310 310 311 309 308 307 305 304 305 301 301 300
331 333 334 335 334 334 334 334 333 332 331 330 329 329 328 327 327 328 327 325 325 324 323 322 321 320 320 320 321 320 320 319 319 318 315 315 314 313 312 311 311 311 310 310 312 314 312 310 309 309 308 309 310 309 309 310 307 306 305 304 306 301
330 332 333 334 334 334 334 333 333 332 332 331 330 330 329 328 328 327 327 325 323 323 321 320 319 319 318 317 319 318 316 316 316 316 314 312 312 311 310 310 310 309 308 309 310 311 310 309 308 309 308 304 306 306 307 304 306 306 304 303 303 299
330 331 333 333 334 333 333 334 333 333 332 331 330 330 330 328 327 328 327 325 324 323 321 322 320 319 317 316 318 318 317 316 315 314 313 312 311 310 310 309 308 307 307 306 306 307 307 306 305 305 304 304 303 303 302 302 303 303 302 302 301 302
329 331 332 333 333 333 333 333 333 333 332 331 331 330 330 329 328 328 327 326 325 324 323 322 320 319 316 316 316 316 315 314 312 312 312 312 311 310 310 309 307 306 306 304 304 305 304 304 303 302 302 302 302 301 301 300 301 302 302 305 303 301
330 331 332 332 333 333 333 333 333 331 331 331 331 330 329 329 329 328 327 326 324 323 323 321 319 317 315 315 314 314 314 312 311 311 311 310 309 309 308 307 306 305 305 305 304 303 303 303 302 302 302 302 302 300 301 300 300 300 299 300 301 302
330 331 331 332 333 333 333 332 332 331 331 330 330 329 329 328 328 327 327 326 324 322 321 320 318 316 314 313 313 313 312 310 310 310 310 310 309 308 307 307 305 304 304 304 304 302 302 302 302 301 301 301 301 301 301 302 301 300 299 299 299 301
Wind_Speed
8 8 7 6 4 4 7 13 12 13 14 13 12 11 10 8 6 7 6 6 6 3 1 2 3 2 7 3 5 6 2 7 4 3 1 3 4 5 5 5 5 5 6 6 6 7 6 6 5 6 10 12 12 7 6 7 7 6 6 4 4 6
7 9 8 6 4 4 4 9 5 6 6 9 9 8 5 2 5 1 6 4 2 2 2 2 1 6 1 3 4 5 3 4 4 2 1 3 4 4 4 4 5 6 6 6 7 3 3 4 6 8 10 11 7 6 6 6 6 6 6 6 6 7
8 8 9 7 5 4 4 4 5 5 5 8 6 5 3 2 2 3 1 2 1 1 2 1 1 2 3 5 3 6 5 3 3 2 0 1 2 4 3 4 6 7 7 6 3 3 3 3 3 10 10 7 6 6 7 7 7 7 7 6 6 11
9 9 9 6 5 5 3 4 4 4 4 4 4 5 4 3 3 2 2 2 2 2 2 2 3 8 6 3 4 5 5 3 2 1 2 4 4 4 5 5 5 6 5 3 3 3 3 3 4 5 6 6 6 6 7 6 6 6 7 7 7 13
8 8 9 7 7 6 4 5 4 4 3 3 3 4 5 4 3 3 3 2 2 2 3 2 0 2 3 4 3 2 2 3 2 3 4 2 1 2 2 3 4 4 4 3 4 4 3 5 6 7 6 6 6 7 6 6 6 6 7 6 7 13
8 8 8 7 7 7 6 5 5 5 4 3 3 4 4 4 4 4 4 3 2 2 2 3 1 1 2 3 3 3 2 1 2 2 1 1 1 1 2 2 2 2 3 3 4 3 4 5 7 6 5 6 7 6 5 6 6 6 5 5 7 12
9 8 9 8 6 6 6 5 5 6 5 4 4 4 4 4 4 4 4 4 4 3 3 3 3 2 1 2 3 3 2 1 1 1 0 0 1 1 1 1 1 2 2 3 4 4 5 6 7 7 7 7 6 6 6 6 5 5 5 5 8 13
10 9 8 8 7 7 5 6 6 7 6 5 5 5 4 4 4 4 4 4 3 3 4 4 4 4 3 2 2 3 1 1 1 0 1 1 0 0 1 1 2 3 3 3 4 4 5 6 7 7 8 7 7 6 6 5 4 4 4 4 5 11
11 12 8 8 8 7 6 6 6 6 6 7 5 6 5 4 4 4 3 4 3 4 3 4 4 4 3 3 3 3 2 1 1 1 1 1 2 1 1 0 2 3 3 4 4 4 5 7 7 7 8 8 7 7 6 4 4 5 4 4 5 9
12 11 9 9 7 7 7 6 6 7 6 6 5 5 4 5 4 4 4 4 3 4 4 4 4 3 4 4 3 3 3 2 3 2 2 2 1 2 2 1 2 3 4 5 4 4 5 7 7 7 7 8 7 6 4 4 5 4 4 5 5 7
12 11 9 9 8 8 7 7 6 6 6 6 5 5 5 5 5 4 4 4 4 4 4 4 4 4 4 4 4 3 3 3 3 3 2 2 2 2 2 2 3 4 4 4 4 3 5 6 8 7 7 8 7 5 5 4 4 4 4 5 5 5
11 11 10 9 8 8 7 7 7 6 6 5 5 5 5 5 5 5 4 4 4 5 4 4 5 4 5 5 4 4 3 3 3 3 2 2 2 2 3 3 2 3 4 5 5 4 4 6 8 7 7 8 6 5 5 4 5 5 5 4 5 6
11 11 10 10 8 7 7 7 7 7 6 6 5 5 6 5 5 5 4 4 5 5 5 5 5 5 5 5 5 5 4 3 3 3 3 3 3 3 3 3 3 3 5 6 6 5 5 5 8 7 6 7 5 6 5 5 4 5 5 4 5 5
10 11 11 9 8 7 7 7 7 6 6 6 5 6 6 6 5 5 5 4 5 5 5 4 5 5 5 5 4 4 4 3 3 4 3 4 3 3 4 4 4 5 4 5 6 5 6 7 7 7 6 6 5 5 5 5 4 4 4 5 5 5
11 10 11 10 10 8 7 7 7 6 6 6 6 6 6 6 5 5 5 4 5 5 5 5 5 5 5 5 5 4 4 4 4 4 4 3 3 2 3 5 5 6 5 6 5 4 6 7 8 8 7 5 5 5 5 5 4 4 4 5 5 5
11 12 11 10 9 8 8 7 7 7 6 7 6 6 6 6 6 5 5 5 5 5 5 5 5 5 5 5 5 4 4 4 4 4 3 3 2 3 4 4 3 6 7 5 6 6 5 7 7 8 6 4 4 4 4 4 4 4 4 5 4 4
13 13 11 10 10 8 7 7 7 7 7 7 7 6 6 5 5 5 5 5 5 5 5 5 5 6 5 5 5 4 4 4 4 4 4 3 3 2 4 4 4 3 5 6 7 7 6 6 7 6 5 4 4 4 4 4 4 4 4 5 5 4
11 12 10 10 10 8 7 7 7 7 6 7 7 6 6 6 6 6 5 5 6 6 5 5 5 5 5 5 5 5 4 4 4 4 4 3 3 2 2 5 5 4 4 7 6 8 7 6 5 5 5 5 5 4 4 4 4 4 5 5 4 5
10 11 10 9 9 8 7 6 6 7 6 6 5 5 6 6 6 5 6 6 6 6 6 6 6 6 5 5 5 5 4 5 4 4 4 4 3 3 3 3 6 6 5 4 6 7 8 7 6 6 6 5 4 4 3 3 3 4 4 4 4 3
9 10 8 8 8 8 7 7 7 6 6 6 6 5 5 6 6 6 6 7 7 6 6 6 6 6 5 6 5 5 6 5 5 4 4 4 4 5 6 6 6 8 8 6 5 6 8 9 7 7 6 6 5 4 5 4 4 3 3 3 4 3
10 10 9 9 9 9 10 8 6 9 8 7 6 6 6 6 6 6 7 7 7 6 7 6 6 6 6 6 5 5 5 4 5 5 5 5 5 6 5 6 6 4 8 8 4 4 5 8 10 5 6 6 6 5 4 4 4 3 3 3 3 4
10 11 11 10 8 8 8 8 7 7 6 6 7 7 6 5 6 6 7 7 7 7 8 8 6 6 6 6 6 5 6 6 6 5 4 4 5 5 6 6 6 5 1 6 6 6 7 7 3 6 7 3 3 4 3 4 4 3 2 2 3 4
12 12 11 10 9 9 7 5 5 4 7 4 3 5 6 6 6 7 6 6 6 7 8 7 8 7 6 6 6 6 6 6 5 5 5 5 6 7 6 8 8 8 5 2 3 5 6 1 6 4 4 6 3 3 1 2 2 3 2 2 3 4
13 12 11 11 10 7 6 4 3 5 5 6 5 4 4 5 5 6 6 6 5 6 7 7 9 8 6 6 7 7 6 6 6 5 6 7 6 7 6 6 6 6 8 6 4 7 4 2 5 10 4 1 4 4 3 5 3 1 1 2 4 4
12 13 12 12 11 8 7 5 4 4 4 4 4 5 5 5 6 7 6 6 6 6 7 7 7 7 7 7 6 6 6 6 6 6 5 6 7 7 7 7 7 7 8 8 7 5 5 2 5 1 7 5 2 2 4 2 4 1 1 3 2 2
11 11 12 12 11 10 10 10 8 8 9 8 8 9 11 11 9 8 7 6 6 6 6 6 6 7 6 6 6 6 6 7 6 6 6 6 6 5 6 7 7 8 8 5 9 6 6 3 3 2 1 1 4 2 5 2 3 3 1 0 1 1
12 11 11 11 12 10 10 10 12 12 10 11 10 6 4 7 8 7 7 8 6 6 6 7 6 6 6 6 6 6 6 6 6 6 5 5 6 7 7 7 6 6 7 6 5 7 8 7 2 1 1 3 2 1 7 7 4 3 2 2 2 2
12 11 11 11 13 12 12 11 11 12 11 11 10 8 7 7 6 7 8 8 6 6 6 6 7 6 7 7 6 6 6 6 6 6 6 6 7 6 5 4 6 7 5 6 7 8 8 6 8 4 2 2 4 4 3 2 6 6 5 5 4 1
13 12 12 14 13 14 13 13 12 11 10 8 7 7 7 7 8 7 8 6 7 7 6 6 7 8 7 7 6 7 6 6 6 6 5 5 5 6 7 7 6 6 7 6 6 5 6 7 6 6 5 2 4 3 3 3 3 3 4 4 1 4
15 13 12 14 14 15 14 12 12 13 13 8 6 7 8 8 8 8 8 8 7 7 6 6 5 6 7 7 7 6 7 7 6 6 5 5 5 5 5 5 6 7 7 7 5 6 7 6 7 6 6 7 5 3 3 3 2 3 4 2 5 6
16 12 13 15 15 16 14 13 13 13 13 11 10 10 9 8 8 8 8 8 8 7 6 7 6 6 6 7 6 6 6 6 5 5 5 5 6 6 6 5 5 4 6 7 6 6 4 5 6 6 6 7 7 8 7 6 6 5 5 3 3 1
14 16 14 14 15 15 14 14 13 12 13 11 12 11 12 12 11 11 10 9 7 6 6 6 6 6 6 6 6 6 5 5 5 5 5 5 5 5 4 4 4 5 5 4 5 5 6 6 7 5 6 6 6 6 5 6 6 7 7 6 6 4
18 17 16 15 16 16 15 15 14 13 12 10 12 12 12 12 11 11 10 9 8 8 7 7 7 7 6 7 6 6 6 6 5 5 5 5 5 5 5 5 5 5 5 6 6 7 7 7 8 8 7 4 4 5 6 3 5 6 4 4 6 5
19 17 15 15 17 17 17 15 13 12 11 10 11 11 11 11 11 10 10 10 10 10 10 10 9 9 7 7 6 6 7 6 5 6 6 6 5 5 5 5 5 6 6 4 5 6 6 6 5 4 5 5 4 5 4 4 5 6 6 6 5 7
16 16 17 18 16 17 15 14 12 12 11 10 11 10 10 9 11 11 9 10 9 8 9 8 9 7 7 7 6 6 6 6 6 6 6 6 5 5 4 4 4 5 4 4 5 5 5 7 6 6 5 5 5 3 4 4 4 5 6 7 7 7
20 19 17 16 16 16 14 12 12 12 12 11 10 9 9 9 10 10 11 10 10 9 8 7 7 8 7 8 8 7 6 6 6 6 6 6 6 5 5 5 4 4 5 2 6 6 5 5 6 6 6 5 6 4 3 3 3 3 3 3 5 6
17 15 17 18 17 15 14 13 14 13 11 12 12 13 12 11 11 9 9 9 9 8 7 7 7 7 8 7 7 8 7 7 6 6 6 6 5 5 5 5 5 5 6 4 5 6 5 6 5 6 5 6 6 5 4 4 4 3 3 3 3 5
Wind_Direction
157 157 157 160 168 174 181 171 168 166 166 165 163 166 168 179 185 191 183 190 188 146 135 169 164 158 177 139 116 125 131 171 132 138 104 60 56 50 39 26 22 24 29 35 35 41 30 28 46 95 108 102 99 87 82 82 79 70 62 55 60 77
162 165 161 162 164 172 189 168 158 165 160 164 163 167 176 153 188 99 197 191 131 147 122 125 121 165 77 132 151 150 145 131 121 93 66 43 41 38 24 14 12 16 23 25 29 33 37 15 24 114 107 99 94 91 90 90 85 81 71 71 78 85
171 167 163 166 166 170 176 141 156 153 158 159 160 156 107 136 68 137 47 101 132 104 134 135 147 139 116 128 146 171 170 154 165 173 111 1 19 16 13 7 11 10 22 34 30 35 48 54 33 108 92 89 95 99 96 90 87 84 77 76 79 85
175 171 169 168 169 166 155 148 149 140 140 129 111 109 123 102 117 116 107 106 130 144 123 149 196 178 168 139 161 175 177 183 168 93 60 38 28 22 4 3 12 32 36 42 27 27 54 70 90 96 99 98 101 98 92 83 84 83 81 74 76 78
179 174 171 169 173 171 153 149 146 135 126 122 108 110 122 122 137 139 122 136 149 157 130 134 32 26 82 124 121 84 38 47 68 72 52 21 17 335 356 354 17 36 46 50 37 24 56 90 106 109 108 109 107 105 93 88 88 85 79 77 77 75
178 179 177 172 173 173 161 161 151 146 137 123 123 133 136 146 144 154 142 143 157 146 142 132 116 93 74 114 136 123 81 70 66 94 59 25 339 348 332 4 41 37 44 62 67 54 76 111 116 115 110 108 109 103 94 93 91 84 76 72 73 75
179 179 182 175 169 177 166 163 154 150 157 152 153 143 161 158 155 157 146 151 151 157 150 144 162 183 134 129 145 161 153 78 92 92 129 134 329 336 342 358 59 68 71 76 80 72 95 105 118 119 116 112 109 104 96 95 88 80 69 62 80 78
181 179 181 177 171 181 162 160 166 174 174 172 168 177 177 179 158 157 152 153 162 155 156 162 179 182 185 149 168 148 145 147 119 117 220 163 146 76 37 60 66 70 81 93 93 91 101 120 121 124 121 116 115 109 103 101 90 74 65 65 72 82
183 182 180 177 178 180 165 166 169 178 169 184 177 190 185 171 166 160 150 155 169 162 161 170 178 186 150 171 150 156 167 166 147 195 190 152 150 130 115 124 97 107 111 110 111 111 118 125 126 123 123 122 120 115 110 102 89 79 61 65 69 81
185 183 180 179 181 180 172 166 169 177 165 181 173 175 171 178 171 156 158 165 189 168 191 181 181 166 168 175 168 170 173 169 165 175 158 171 152 142 171 127 115 124 125 123 124 138 129 132 130 125 124 124 122 116 106 101 90 79 77 63 66 76
184 183 183 183 181 180 172 177 173 174 166 182 168 162 173 173 167 169 172 175 186 192 183 187 177 175 177 167 175 178 181 161 155 167 159 168 152 141 159 171 171 151 135 125 126 143 138 132 132 126 126 123 121 112 100 93 89 83 73 59 56 64
181 184 185 187 182 178 178 179 176 172 175 174 159 164 168 169 176 184 180 178 188 198 191 188 181 178 176 172 176 174 163 153 150 154 160 159 147 140 153 174 153 125 114 102 97 97 132 130 131 128 126 121 118 110 104 102 97 91 80 68 62 61
181 183 188 188 185 180 177 178 179 182 174 171 168 160 172 177 179 188 187 182 191 198 196 186 186 180 183 175 169 160 156 158 151 155 161 168 158 133 134 128 98 99 96 94 91 84 94 113 125 123 122 122 120 111 110 106 101 96 95 86 71 66
183 184 188 187 185 182 180 180 184 174 172 166 170 171 179 176 179 185 189 187 188 196 193 178 171 174 165 164 160 164 158 160 156 156 156 164 156 152 138 130 129 101 89 88 92 91 111 117 119 121 119 122 111 113 111 99 93 95 99 86 81 68
184 185 189 190 190 187 179 182 181 173 171 170 170 178 179 173 179 184 180 185 185 191 186 173 166 166 167 162 157 152 164 167 156 153 152 161 142 146 141 131 129 106 87 84 85 81 96 118 128 126 125 120 113 110 101 102 98 99 93 92 79 77
183 187 190 190 192 187 181 183 183 177 170 168 170 179 177 178 180 179 180 177 178 188 180 173 166 163 161 167 161 161 166 158 159 144 146 143 142 149 139 113 99 129 110 86 94 77 64 106 113 118 116 98 106 106 107 111 112 103 97 87 84 86
185 187 187 188 192 190 181 182 182 179 171 167 173 180 177 171 173 179 179 175 171 181 173 172 169 166 161 161 156 152 161 164 156 149 149 146 143 153 143 121 97 89 119 117 105 96 78 78 100 94 89 85 77 98 98 111 116 114 97 93 101 98
186 187 187 187 190 190 186 181 179 178 168 172 179 177 170 165 178 180 171 178 171 176 169 171 169 165 157 160 154 153 159 163 156 147 147 146 149 142 124 128 110 77 105 121 116 115 105 95 86 91 77 64 60 61 86 106 124 116 110 119 111 111
191 189 188 186 187 190 187 183 177 171 171 175 179 177 163 171 181 172 179 176 171 172 168 168 165 161 153 154 150 154 158 164 157 151 151 152 147 144 122 111 124 101 68 70 124 123 122 110 93 78 71 48 52 63 78 90 89 117 129 126 133 119
194 191 189 188 185 188 188 187 180 172 177 182 176 176 174 180 176 179 178 170 172 169 163 165 163 160 154 152 154 158 161 160 158 154 155 156 151 157 150 127 127 121 105 83 65 114 121 109 85 79 75 62 52 71 74 76 97 119 123 132 121 115
190 190 192 194 194 187 189 188 191 190 189 175 174 174 176 180 180 182 172 170 168 165 161 160 163 159 161 158 155 153 153 155 160 163 166 177 164 154 144 140 129 119 126 116 99 126 129 122 116 70 57 60 50 35 60 78 86 90 107 118 117 134
187 192 198 200 198 201 200 200 190 188 169 159 164 172 180 179 180 171 168 167 164 160 164 167 161 163 160 156 155 159 162 165 167 173 167 147 147 136 130 136 134 99 56 133 145 171 170 121 76 142 137 112 57 40 64 68 68 43 64 106 143 146
188 189 195 196 197 202 198 194 184 163 169 139 158 173 169 173 166 165 166 163 157 159 161 162 162 163 163 163 165 163 167 160 166 160 138 146 149 144 154 157 160 145 129 56 109 181 184 51 134 113 102 103 153 110 318 39 66 52 47 121 149 167
189 189 193 196 198 197 190 177 161 149 158 156 164 153 145 145 150 143 157 157 156 158 161 162 165 165 165 162 167 173 158 157 162 166 159 152 159 157 161 167 163 158 145 140 159 196 207 151 137 139 153 156 175 134 150 232 186 185 277 121 160 170
187 190 193 193 190 178 171 167 150 124 130 102 90 142 143 154 164 163 152 158 162 158 163 162 164 166 164 165 170 168 163 163 159 165 161 156 164 171 175 175 170 160 173 160 177 185 202 143 202 10 139 118 90 171 218 183 124 201 356 132 125 164
190 190 192 191 185 177 184 181 171 167 175 180 178 177 187 177 166 165 162 151 152 164 161 161 164 161 161 158 170 171 165 159 162 161 169 169 163 149 169 176 186 177 185 192 166 166 190 216 218 103 73 139 165 173 162 202 118 215 3 309 300 250
191 191 190 188 182 181 186 192 192 192 189 190 191 194 154 156 163 160 150 162 161 158 164 161 162 160 159 166 164 167 165 166 164 165 161 153 164 179 179 186 184 188 192 171 148 172 186 189 94 262 94 44 63 16 139 134 192 85 179 292 326 230
188 188 187 184 186 186 188 191 195 199 195 194 195 173 159 149 150 151 154 160 155 163 165 165 157 161 163 165 164 165 162 159 160 165 158 169 179 185 169 173 186 194 179 181 175 174 185 174 179 185 126 101 70 81 50 61 148 166 154 166 224 320
189 185 187 186 186 190 192 191 194 195 200 200 176 152 144 147 152 157 153 151 159 166 165 163 165 164 166 166 168 164 161 158 159 166 167 164 171 175 183 174 170 175 184 189 188 179 161 184 186 170 138 85 95 76 59 53 98 83 137 132 229 185
191 187 184 188 189 191 193 191 195 198 196 182 154 144 150 156 159 159 157 160 166 165 161 160 163 166 163 169 165 160 163 165 167 162 153 167 162 177 191 188 187 187 183 184 189 171 178 178 192 175 180 155 141 116 81 78 43 91 44 73 165 194
192 184 185 190 189 193 193 195 199 196 192 178 164 154 155 159 159 162 163 167 172 169 163 163 161 170 173 164 160 161 163 166 157 156 148 155 176 183 189 186 174 164 174 176 175 167 151 163 177 169 173 172 178 174 176 177 188 194 152 140 90 138
189 190 189 189 191 194 194 198 200 193 192 182 168 168 170 170 171 171 170 173 165 150 158 153 159 161 172 166 156 155 153 148 153 147 162 167 166 169 157 148 152 159 153 143 146 157 160 157 168 172 184 192 192 188 182 182 184 174 178 192 171 161
194 191 190 188 192 194 196 200 195 193 193 179 176 173 174 172 173 173 172 166 165 166 154 157 174 172 182 170 158 150 154 155 155 164 154 149 150 150 154 155 156 149 151 161 171 167 172 183 173 178 190 187 172 181 198 189 152 171 163 131 138 118
198 190 186 188 192 194 200 198 192 191 188 177 180 178 179 174 176 175 172 171 175 173 174 178 173 181 169 165 165 166 163 164 155 147 146 146 145 153 155 153 152 147 154 155 145 159 160 149 151 144 140 150 169 172 172 169 162 149 156 142 151 148
195 189 189 192 191 196 199 194 191 190 184 179 179 180 180 176 173 174 173 171 178 170 172 180 174 154 158 164 161 157 160 152 149 147 137 136 131 137 136 117 121 123 118 136 133 132 136 146 147 151 149 148 140 136 153 157 155 173 165 177 162 156
193 190 189 189 193 196 194 189 189 188 185 179 178 176 176 178 181 173 168 173 175 174 176 163 149 155 162 160 159 158 154 152 146 143 140 139 145 144 143 130 118 125 119 122 128 127 133 131 136 143 134 129 117 125 133 137 130 135 155 153 149 158
193 188 190 193 193 191 189 187 191 185 179 180 180 182 181 178 174 168 169 171 169 170 158 157 156 159 157 161 159 158 154 149 149 143 138 142 144 143 141 136 137 136 128 123 113 128 135 132 132 129 119 129 121 125 118 104 94 99 115 112 140 162